RUBIN 4/SL-8

Satellite information

Favourite Embed

Satellite Type and Status

PAYLOADIN ORBIT

Key statistics

Satellite RUBIN 4/SL-8 at a glance.

Uptime

8009

Days in orbit

Revolutions

≈ 14.7

Per day

Orbit

SSO

Sun Synchronous Orbit

Inclination

98.4

Latest

Satellite identification and parameters

Extended collection of information and parameters for RUBIN 4/SL-8.

Object identification

Identified? True

Debris? False

Object name: RUBIN 4/SL-8

International designator: 2003-042B

Object number (NORAD): 27940

Object ID (CCSDS): 27940

Country: GERMANY (GER)

Current information (Y/N): Y

RCS size: LARGE

Orbital parameters

Period: 98.031 minutes

Inclination: 98.3677 deg

SMA: 7042.636 km

Apoapsis: 673.62 km

Periapsis: 655.382 km

RAAN: 48.3421 deg

Eccentricy: 0.00129488

Argument of periapsis: 187.0923 deg

Mean anomaly: 173.01 deg

Mean motion: 14.68925968 rev/day

Mean motion (dot): 0.00001169 rev/day2

B* drag term: 0.00020852772 1/REarth

Two-line elements (TLE)

Creation date: Aug. 31, 2025, 2:26 a.m.

Reference frame: TEME

Reference center: EARTH

Epoch: Aug. 30, 2025, 5:21 p.m. UTC

TLE line 0: 0 RUBIN 4/SL-8

TLE line 1: 1 27940U 03042B 25242.72322991 .00001169 00000-0 20853-3 0 9999

TLE line 2: 2 27940 98.3677 48.3421 0012949 187.0923 173.0100 14.68925968171910

Live tracking on map

Real-time ground track for satellite RUBIN 4/SL-8.

In-orbit conjunctions

A list of the most updated potential collisions computed for object RUBIN 4/SL-8.

Target Orbit TCA Probability of collision Miss distance Type
SL-16 DEB LEO 2025-04-07 11:24:40 0.001723505 102.0 (m) DEBRIS
PEGASUS DEB LEO 2025-03-15 19:35:14 0.0001927379 942.0 (m) DEBRIS
THOR ABLESTAR DEB LEO 2025-02-01 09:41:35 0.0001238839 785.0 (m) DEBRIS
CZ-6A DEB LEO 2024-12-20 03:21:55 0.000302892 324.0 (m) DEBRIS
SL-8 R/B SSO 2024-09-02 17:16:07 0.0001330509 313.0 (m) ROCKET BODY

Associated space launch

Mozhayets 4 (RS 22) was also a training satellite built by the Mozhaisky military academy. It also tested components to be used in upgraded GLONASS satellites.

RUBIN 4/SL-8 was lifted into orbit during the mission ‘Kosmos-3M | Mozhaets-4’, on board a Kosmos-3M space rocket.

The launch took place on Sept. 27, 2003, 6:11 a.m. from 132/1 (132L).

For more information about the launch, click the button.

Launch to space Kosmos-3M | Mozhaets-4
Kosmos-3M | Mozhaets-4

Agency: N/A

Status: Launch Successful

Launch date: Sept. 27, 2003, 6:11 a.m. UTC

Rocket: Kosmos-3M

Launch pad: 132/1 (132L)

Location: Plesetsk Cosmodrome, Russian Federation

...

Latest news about this satellite

There are no fresh news available about this satellite. Check back as we update our databases every day.


Newsletter sign-up

Weekly statistics, charts and insights to help you stay on top of the space industry.